[Date Prev][Date Next][Thread Prev][Thread Next] - [Date Index][Thread Index][Author Index]
2 Line ISS Keps 10-16
- Subject: [sarex] 2 Line ISS Keps 10-16
- From: "Dave Larsen PhD" <doc@xxxxxxxxxxx>
- Date: Thu, 16 Oct 2003 02:36:30 -0700
ISS
1 25544U 98067A 03289.31827546 .00016330 00000-0 18557-3 0 6504
2 25544 51.6290 129.7540 0006417 48.0697 305.5299 15.62458470279929
----
Via the sarex mailing list at AMSAT.ORG courtesy of AMSAT-NA.
To unsubscribe, send "unsubscribe sarex" to Majordomo@amsat.org
AMSAT Home